Location: Chilton Park
(37.7711°N, 100.0276°W)
Time: 22:00:30
(UTC+00:00)

Cosmos 1898 Rocket - Pass Details

Date: 11 July 2022
Orbit: 753 x 783 km, 74.0° (Epoch: 16 August)

Event Time Altitude Azimuth Distance (km) Brightness Sun altitude
Rises 07:53:14 0° 328° (NNW) 3,212 7.3 -28.1°
Reaches altitude 10° 07:55:56 10° 316° (NW) 2,284 6.2 -27.9°
Enters shadow 07:58:19 21° 292° (WNW) 1,657 5.2 -27.7°
